Location: Cahas Mountain Overlook
(37.0833°N, 80.1000°W)
Time: 19:20:52
(UTC-04:00)

Tiros 1 - Pass Details

Date: 10 February 2026
Orbit: 618 x 649 km, 48.4° (Epoch: 13 March)

Event Time Altitude Azimuth Distance (km) Brightness Sun altitude
Rises 17:11:57 0° 306° (NW) 2,885 10.9 7.2°
Reaches altitude 10° 17:14:17 10° 311° (NW) 1,979 10.1 6.8°
Maximum altitude 17:18:47 59° 31° (NNE) 714 7.3 6.0°
Drops below altitude 10° 17:23:17 10° 111° (ESE) 1,984 9.3 5.2°
Sets 17:25:37 0° 115° (ESE) 2,893 10.1 4.7°
